| time (UTC) | temp F | wind direction | speed MPH | gust MPH | rain 1hr in | rain 24hr in | rain mn in | humidity % | barometer mb |
| 20260903003044 | 95 | 88 | 4.0 | 10.0 | 0.00 | 0.00 | 0.00 | 41 | 1011.2 |
| 20260903002544 | 96 | 86 | 2.0 | 10.0 | 0.00 | 0.00 | 0.00 | 40 | 1011.0 |
| 20260903002042 | 97 | 160 | 1.0 | 4.0 | 0.00 | 0.00 | 0.00 | 38 | 1010.9 |
| 20260903001542 | 97 | 153 | 0.0 | 3.0 | 0.00 | 0.00 | 0.00 | 36 | 1010.6 |
| 20260903001044 | 97 | 62 | 0.0 | 2.0 | 0.00 | 0.00 | 0.00 | 36 | 1010.6 |
| 20260903000542 | 97 | 82 | 0.0 | 2.0 | 0.00 | 0.00 | 0.00 | 36 | 1010.6 |
| 20260903000040 | 98 | 61 | 1.0 | 3.0 | 0.00 | 0.00 | 0.00 | 35 | 1010.6 |
| 20260902235540 | 98 | 59 | 2.0 | 6.0 | 0.00 | 0.00 | 0.00 | 35 | 1010.6 |
| 20260902235040 | 98 | 84 | 2.0 | 6.0 | 0.00 | 0.00 | 0.00 | 35 | 1010.6 |
| 20260902234540 | 98 | 50 | 1.0 | 5.0 | 0.00 | 0.00 | 0.00 | 35 | 1010.5 |
| 20260902234038 | 98 | 76 | 1.0 | 3.0 | 0.00 | 0.00 | 0.00 | 34 | 1010.6 |
| 20260902233542 | 99 | 50 | 0.0 | 1.0 | 0.00 | 0.00 | 0.00 | 33 | 1010.5 |
| 20260902233538 | 99 | 58 | 1.0 | 2.0 | 0.00 | 0.00 | 0.00 | 34 | 1010.5 |
| 20260902232538 | 99 | 50 | 1.0 | 2.0 | 0.00 | 0.00 | 0.00 | 33 | 1010.5 |
| 20260902232038 | 99 | 27 | 1.0 | 2.0 | 0.00 | 0.00 | 0.00 | 32 | 1010.5 |
| 20260902231538 | 99 | 30 | 0.0 | 2.0 | 0.00 | 0.00 | 0.00 | 32 | 1010.5 |
| 20260902231038 | 99 | 70 | 0.0 | 1.0 | 0.00 | 0.00 | 0.00 | 33 | 1010.5 |
| 20260902230538 | 100 | 70 | 1.0 | 3.0 | 0.00 | 0.00 | 0.00 | 32 | 1010.5 |
| 20260902230038 | 100 | 70 | 1.0 | 3.0 | 0.00 | 0.00 | 0.00 | 32 | 1010.5 |
| 20260902225539 | 100 | 67 | 1.0 | 4.0 | 0.00 | 0.00 | 0.00 | 32 | 1010.5 |
| 20260902225535 | 100 | 66 | 2.0 | 4.0 | 0.00 | 0.00 | 0.00 | 32 | 1010.5 |
| 20260902225139 | 100 | 67 | 1.0 | 4.0 | 0.00 | 0.00 | 0.00 | 32 | 1010.4 |
| 20260902224034 | 100 | 126 | 1.0 | 4.0 | 0.00 | 0.00 | 0.00 | 32 | 1010.4 |
| 20260902223534 | 101 | 87 | 1.0 | 4.0 | 0.00 | 0.00 | 0.00 | 32 | 1010.4 |
| 20260902223034 | 101 | 49 | 1.0 | 4.0 | 0.00 | 0.00 | 0.00 | 32 | 1010.3 |
| 20260902222534 | 100 | 5 | 1.0 | 3.0 | 0.00 | 0.00 | 0.00 | 32 | 1010.4 |
| 20260902222034 | 100 | 350 | 1.0 | 4.0 | 0.00 | 0.00 | 0.00 | 32 | 1010.4 |
| 20260902221534 | 100 | 77 | 1.0 | 4.0 | 0.00 | 0.00 | 0.00 | 32 | 1010.4 |
| 20260902221038 | 101 | 348 | 0.0 | 3.0 | 0.00 | 0.00 | 0.00 | 32 | 1010.4 |
| 20260902221034 | 100 | 355 | 1.0 | 2.0 | 0.00 | 0.00 | 0.00 | 32 | 1010.5 |
| 20260902220038 | 101 | 256 | 1.0 | 3.0 | 0.00 | 0.00 | 0.00 | 32 | 1010.5 |
| 20260902220034 | 101 | 335 | 1.0 | 3.0 | 0.00 | 0.00 | 0.00 | 32 | 1010.5 |
| 20260902215033 | 101 | 72 | 1.0 | 3.0 | 0.00 | 0.00 | 0.00 | 31 | 1010.7 |
| 20260902214534 | 101 | 29 | 2.0 | 3.0 | 0.00 | 0.00 | 0.00 | 31 | 1010.7 |
| 20260902214035 | 101 | 31 | 1.0 | 2.0 | 0.00 | 0.00 | 0.00 | 32 | 1010.7 |
| 20260902213534 | 102 | 326 | 1.0 | 3.0 | 0.00 | 0.00 | 0.00 | 32 | 1010.8 |
| 20260902213032 | 101 | 12 | 2.0 | 6.0 | 0.00 | 0.00 | 0.00 | 33 | 1010.8 |
| 20260902212532 | 102 | 65 | 1.0 | 6.0 | 0.00 | 0.00 | 0.00 | 32 | 1010.9 |
| 20260902212032 | 101 | 347 | 1.0 | 4.0 | 0.00 | 0.00 | 0.00 | 33 | 1010.8 |
| 20260902211537 | 101 | 69 | 1.0 | 8.0 | 0.00 | 0.00 | 0.00 | 33 | 1010.9 |
| 20260902211532 | 101 | 68 | 2.0 | 8.0 | 0.00 | 0.00 | 0.00 | 33 | 1010.9 |
| 20260902210530 | 101 | 316 | 1.0 | 4.0 | 0.00 | 0.00 | 0.00 | 32 | 1011.0 |
| 20260902210030 | 102 | 73 | 2.0 | 4.0 | 0.00 | 0.00 | 0.00 | 32 | 1011.1 |
| 20260902205530 | 103 | 53 | 2.0 | 6.0 | 0.00 | 0.00 | 0.00 | 32 | 1011.0 |
| 20260902205030 | 103 | 74 | 1.0 | 6.0 | 0.00 | 0.00 | 0.00 | 32 | 1011.0 |
| 20260902204528 | 103 | 64 | 1.0 | 4.0 | 0.00 | 0.00 | 0.00 | 31 | 1011.2 |
| 20260902204032 | 101 | 341 | 1.0 | 3.0 | 0.00 | 0.00 | 0.00 | 31 | 1011.4 |
| 20260902204028 | 102 | 348 | 1.0 | 4.0 | 0.00 | 0.00 | 0.00 | 31 | 1011.3 |
| 20260902203027 | 101 | 160 | 2.0 | 6.0 | 0.00 | 0.00 | 0.00 | 32 | 1011.4 |
| 20260902202528 | 102 | 17 | 2.0 | 6.0 | 0.00 | 0.00 | 0.00 | 32 | 1011.4 |
| 20260902202031 | 102 | 74 | 2.0 | 5.0 | 0.00 | 0.00 | 0.00 | 32 | 1011.5 |
| 20260902202027 | 102 | 301 | 1.0 | 5.0 | 0.00 | 0.00 | 0.00 | 32 | 1011.5 |
| 20260902201025 | 101 | 60 | 1.0 | 4.0 | 0.00 | 0.00 | 0.00 | 32 | 1011.6 |
| 20260902200524 | 102 | 81 | 1.0 | 4.0 | 0.00 | 0.00 | 0.00 | 32 | 1011.7 |
| 20260902200024 | 103 | 5 | 1.0 | 4.0 | 0.00 | 0.00 | 0.00 | 31 | 1011.9 |
| 20260902195528 | 103 | 82 | 1.0 | 4.0 | 0.00 | 0.00 | 0.00 | 32 | 1012.0 |
| 20260902195524 | 103 | 35 | 1.0 | 3.0 | 0.00 | 0.00 | 0.00 | 32 | 1011.9 |
| 20260902194521 | 102 | 15 | 1.0 | 4.0 | 0.00 | 0.00 | 0.00 | 32 | 1012.1 |
| 20260902194022 | 103 | 9 | 1.0 | 4.0 | 0.00 | 0.00 | 0.00 | 32 | 1012.1 |
| 20260902193522 | 102 | 31 | 1.0 | 4.0 | 0.00 | 0.00 | 0.00 | 32 | 1012.3 |
| 20260902193021 | 102 | 65 | 1.0 | 3.0 | 0.00 | 0.00 | 0.00 | 33 | 1012.3 |
| 20260902192520 | 102 | 93 | 1.0 | 3.0 | 0.00 | 0.00 | 0.00 | 32 | 1012.3 |
| 20260902192019 | 103 | 329 | 1.0 | 3.0 | 0.00 | 0.00 | 0.00 | 32 | 1012.6 |
| 20260902191525 | 102 | 50 | 1.0 | 5.0 | 0.00 | 0.00 | 0.00 | 33 | 1012.7 |
| 20260902191520 | 103 | 319 | 1.0 | 3.0 | 0.00 | 0.00 | 0.00 | 32 | 1012.6 |
| 20260902190520 | 101 | 325 | 1.0 | 5.0 | 0.00 | 0.00 | 0.00 | 33 | 1012.8 |
| 20260902190020 | 101 | 351 | 0.0 | 2.0 | 0.00 | 0.00 | 0.00 | 32 | 1012.9 |
| 20260902185520 | 99 | 320 | 0.0 | 3.0 | 0.00 | 0.00 | 0.00 | 33 | 1013.0 |
| 20260902185023 | 99 | 340 | 0.0 | 2.0 | 0.00 | 0.00 | 0.00 | 33 | 1013.2 |
| 20260902185019 | 99 | 245 | 1.0 | 3.0 | 0.00 | 0.00 | 0.00 | 34 | 1013.0 |
| 20260902184622 | 98 | 74 | 1.0 | 2.0 | 0.00 | 0.00 | 0.00 | 34 | 1013.2 |
| 20260902183518 | 99 | 71 | 1.0 | 4.0 | 0.00 | 0.00 | 0.00 | 34 | 1013.3 |
| 20260902183018 | 99 | 355 | 1.0 | 4.0 | 0.00 | 0.00 | 0.00 | 33 | 1013.4 |
| 20260902182518 | 100 | 350 | 1.0 | 5.0 | 0.00 | 0.00 | 0.00 | 33 | 1013.4 |
| 20260902182020 | 99 | 202 | 1.0 | 4.0 | 0.00 | 0.00 | 0.00 | 33 | 1013.6 |
| 20260902182016 | 99 | 313 | 1.0 | 5.0 | 0.00 | 0.00 | 0.00 | 34 | 1013.5 |
| 20260902181015 | 99 | 180 | 1.0 | 3.0 | 0.00 | 0.00 | 0.00 | 33 | 1013.9 |
| 20260902180514 | 100 | 246 | 1.0 | 4.0 | 0.00 | 0.00 | 0.00 | 32 | 1014.0 |
| 20260902180510 | 98 | 323 | 1.0 | 4.0 | 0.00 | 0.00 | 0.00 | 33 | 1014.0 |
| 20260902175509 | 99 | 67 | 1.0 | 4.0 | 0.00 | 0.00 | 0.00 | 32 | 1014.2 |
| 20260902175009 | 98 | 296 | 0.0 | 4.0 | 0.00 | 0.00 | 0.00 | 32 | 1014.2 |
| 20260902174511 | 97 | 345 | 1.0 | 3.0 | 0.00 | 0.00 | 0.00 | 32 | 1014.4 |
| 20260902174507 | 97 | 321 | 0.0 | 4.0 | 0.00 | 0.00 | 0.00 | 33 | 1014.3 |
| 20260902173507 | 97 | 311 | 1.0 | 4.0 | 0.00 | 0.00 | 0.00 | 32 | 1014.5 |
| 20260902173012 | 95 | 314 | 1.0 | 3.0 | 0.00 | 0.00 | 0.00 | 32 | 1014.7 |
| 20260902173008 | 97 | 337 | 1.0 | 4.0 | 0.00 | 0.00 | 0.00 | 31 | 1014.6 |
| 20260902172005 | 95 | 84 | 1.0 | 3.0 | 0.00 | 0.00 | 0.00 | 31 | 1014.8 |
| 20260902171505 | 95 | 30 | 1.0 | 2.0 | 0.00 | 0.00 | 0.00 | 31 | 1014.9 |
| 20260902171003 | 95 | 323 | 1.0 | 4.0 | 0.00 | 0.00 | 0.00 | 30 | 1015.0 |
| 20260902170503 | 94 | 65 | 1.0 | 4.0 | 0.00 | 0.00 | 0.00 | 30 | 1015.0 |
| 20260902170003 | 94 | 71 | 0.0 | 3.0 | 0.00 | 0.00 | 0.00 | 30 | 1015.1 |
| 20260902165503 | 94 | 9 | 0.0 | 3.0 | 0.00 | 0.00 | 0.00 | 29 | 1015.1 |
| 20260902165002 | 94 | 5 | 1.0 | 3.0 | 0.00 | 0.00 | 0.00 | 29 | 1015.1 |
| 20260902164506 | 94 | 65 | 0.0 | 2.0 | 0.00 | 0.00 | 0.00 | 28 | 1015.4 |
| 20260902164502 | 94 | 78 | 1.0 | 3.0 | 0.00 | 0.00 | 0.00 | 28 | 1015.2 |
| 20260902163459 | 93 | 12 | 0.0 | 2.0 | 0.00 | 0.00 | 0.00 | 27 | 1015.4 |
| 20260902162957 | 93 | 121 | 0.0 | 3.0 | 0.00 | 0.00 | 0.00 | 27 | 1015.4 |
| 20260902162455 | 92 | 153 | 1.0 | 3.0 | 0.00 | 0.00 | 0.00 | 26 | 1015.4 |
| 20260902161958 | 92 | 306 | 1.0 | 3.0 | 0.00 | 0.00 | 0.00 | 25 | 1015.4 |
| 20260902161954 | 91 | 80 | 1.0 | 3.0 | 0.00 | 0.00 | 0.00 | 25 | 1015.5 |
| 20260902160953 | 91 | 109 | 1.0 | 2.0 | 0.00 | 0.00 | 0.00 | 24 | 1015.6 |
| 20260902160453 | 91 | 344 | 1.0 | 2.0 | 0.00 | 0.00 | 0.00 | 23 | 1015.6 |
| 20260902155952 | 90 | 32 | 0.0 | 2.0 | 0.00 | 0.00 | 0.00 | 22 | 1015.5 |
| 20260902155455 | 90 | 5 | 0.0 | 2.0 | 0.00 | 0.00 | 0.00 | 21 | 1015.6 |
| 20260902155450 | 90 | 348 | 1.0 | 2.0 | 0.00 | 0.00 | 0.00 | 20 | 1015.6 |
| 20260902154448 | 89 | 279 | 1.0 | 2.0 | 0.00 | 0.00 | 0.00 | 19 | 1015.6 |
| 20260902153947 | 89 | 237 | 0.0 | 2.0 | 0.00 | 0.00 | 0.00 | 17 | 1015.6 |
| 20260902153447 | 89 | 315 | 0.0 | 1.0 | 0.00 | 0.00 | 0.00 | 14 | 1015.6 |
| 20260902152945 | 88 | 317 | 0.0 | 3.0 | 0.00 | 0.00 | 0.00 | 13 | 1015.6 |
| 20260902152445 | 88 | 207 | 1.0 | 3.0 | 0.00 | 0.00 | 0.00 | 13 | 1015.6 |
| 20260902151945 | 87 | 147 | 1.0 | 5.0 | 0.00 | 0.00 | 0.00 | 13 | 1015.6 |
| 20260902151444 | 87 | 108 | 1.0 | 5.0 | 0.00 | 0.00 | 0.00 | 12 | 1015.6 |
| 20260902150943 | 87 | 159 | 1.0 | 4.0 | 0.00 | 0.00 | 0.00 | 11 | 1015.7 |
| 20260902150443 | 87 | 72 | 1.0 | 3.0 | 0.00 | 0.00 | 0.00 | 10 | 1015.7 |
| 20260902145943 | 87 | 93 | 1.0 | 3.0 | 0.00 | 0.00 | 0.00 | 9 | 1015.7 |
| 20260902145444 | 87 | 94 | 1.0 | 3.0 | 0.00 | 0.00 | 0.00 | 8 | 1015.7 |
| 20260902144941 | 86 | 144 | 1.0 | 4.0 | 0.00 | 0.00 | 0.00 | 7 | 1015.7 |
| 20260902144441 | 86 | 76 | 1.0 | 4.0 | 0.00 | 0.00 | 0.00 | 5 | 1015.7 |
| 20260902143940 | 85 | 106 | 1.0 | 4.0 | 0.00 | 0.00 | 0.00 | 3 | 1015.8 |
| 20260902143439 | 85 | 71 | 2.0 | 4.0 | 0.00 | 0.00 | 0.00 | 1 | 1015.8 |
| 20260902142939 | 84 | 78 | 2.0 | 4.0 | 0.00 | 0.00 | 0.00 | 1 | 1015.7 |
| 20260902142435 | 84 | 98 | 1.0 | 4.0 | 0.00 | 0.00 | 0.00 | 1 | 1015.7 |
| 20260902141935 | 84 | 88 | 1.0 | 3.0 | 0.00 | 0.00 | 0.00 | 1 | 1015.7 |
| 20260902141434 | 84 | 108 | 1.0 | 3.0 | 0.00 | 0.00 | 0.00 | 1 | 1015.6 |
| 20260902140940 | 83 | 82 | 1.0 | 2.0 | 0.00 | 0.00 | 0.00 | 1 | 1015.5 |
| 20260902140935 | 83 | 82 | 1.0 | 2.0 | 0.00 | 0.00 | 0.00 | 1 | 1015.6 |
| 20260902135937 | 82 | 84 | 1.0 | 3.0 | 0.00 | 0.00 | 0.00 | 1 | 1015.6 |
| 20260902135933 | 82 | 88 | 1.0 | 3.0 | 0.00 | 0.00 | 0.00 | 1 | 1015.6 |
| 20260902134933 | 81 | 88 | 1.0 | 2.0 | 0.00 | 0.00 | 0.00 | 1 | 1015.6 |
| 20260902134431 | 81 | 88 | 1.0 | 2.0 | 0.00 | 0.00 | 0.00 | 1 | 1015.6 |
| 20260902133931 | 80 | 89 | 1.0 | 2.0 | 0.00 | 0.00 | 0.00 | 1 | 1015.5 |
| 20260902133430 | 80 | 87 | 1.0 | 2.0 | 0.00 | 0.00 | 0.00 | 1 | 1015.6 |
| 20260902132930 | 79 | 87 | 1.0 | 2.0 | 0.00 | 0.00 | 0.00 | 1 | 1015.5 |
| 20260902132431 | 79 | 86 | 0.0 | 2.0 | 0.00 | 0.00 | 0.00 | 1 | 1015.5 |
| 20260902131935 | 78 | 87 | 1.0 | 2.0 | 0.00 | 0.00 | 0.00 | 1 | 1015.5 |
| 20260902131931 | 78 | 87 | 1.0 | 2.0 | 0.00 | 0.00 | 0.00 | 1 | 1015.5 |
| 20260902130931 | 78 | 87 | 1.0 | 2.0 | 0.00 | 0.00 | 0.00 | 1 | 1015.4 |
| 20260902130430 | 77 | 87 | 1.0 | 2.0 | 0.00 | 0.00 | 0.00 | 1 | 1015.3 |
| 20260902125931 | 77 | 105 | 1.0 | 2.0 | 0.00 | 0.00 | 0.00 | 1 | 1015.2 |
| 20260902125433 | 76 | 105 | 0.0 | 2.0 | 0.00 | 0.00 | 0.00 | 1 | 1015.2 |
| 20260902124931 | 76 | 105 | 0.0 | 1.0 | 0.00 | 0.00 | 0.00 | 1 | 1015.2 |
| 20260902124431 | 76 | 105 | 0.0 | 1.0 | 0.00 | 0.00 | 0.00 | 1 | 1015.1 |
| 20260902123931 | 76 | 105 | 0.0 | 0.0 | 0.00 | 0.00 | 0.00 | 1 | 1015.0 |
| 20260902123431 | 76 | 105 | 0.0 | 0.0 | 0.00 | 0.00 | 0.00 | 1 | 1015.0 |
| 20260902122934 | 76 | 105 | 0.0 | 0.0 | 0.00 | 0.00 | 0.00 | 1 | 1014.8 |
| 20260902122930 | 76 | 105 | 0.0 | 0.0 | 0.00 | 0.00 | 0.00 | 1 | 1014.9 |
| 20260902121930 | 76 | 105 | 0.0 | 1.0 | 0.00 | 0.00 | 0.00 | 1 | 1014.8 |
| 20260902121435 | 77 | 105 | 0.0 | 0.0 | 0.00 | 0.00 | 0.00 | 1 | 1014.8 |
| 20260902121431 | 76 | 105 | 0.0 | 1.0 | 0.00 | 0.00 | 0.00 | 1 | 1014.8 |
| 20260902120430 | 77 | 105 | 0.0 | 0.0 | 0.00 | 0.00 | 0.00 | 1 | 1014.8 |
| 20260902115929 | 77 | 105 | 0.0 | 0.0 | 0.00 | 0.00 | 0.00 | 1 | 1014.7 |
| 20260902115429 | 77 | 105 | 0.0 | 0.0 | 0.00 | 0.00 | 0.00 | 1 | 1014.7 |
| 20260902114929 | 77 | 105 | 0.0 | 0.0 | 0.00 | 0.00 | 0.00 | 1 | 1014.7 |
| 20260902114429 | 77 | 105 | 0.0 | 0.0 | 0.00 | 0.00 | 0.00 | 1 | 1014.7 |
| 20260902113928 | 77 | 105 | 0.0 | 0.0 | 0.00 | 0.00 | 0.00 | 1 | 1014.7 |
| 20260902113430 | 77 | 105 | 0.0 | 1.0 | 0.00 | 0.00 | 0.00 | 1 | 1014.7 |
| 20260902113426 | 77 | 105 | 0.0 | 1.0 | 0.00 | 0.00 | 0.00 | 1 | 1014.7 |
| 20260902112426 | 77 | 105 | 0.0 | 2.0 | 0.00 | 0.00 | 0.00 | 1 | 1014.7 |
| 20260902111924 | 77 | 105 | 0.0 | 2.0 | 0.00 | 0.00 | 0.00 | 1 | 1014.8 |
| 20260902111427 | 77 | 105 | 0.0 | 1.0 | 0.00 | 0.00 | 0.00 | 1 | 1014.8 |
| 20260902111423 | 77 | 105 | 0.0 | 1.0 | 0.00 | 0.00 | 0.00 | 1 | 1014.8 |
| 20260902110421 | 77 | 105 | 0.0 | 2.0 | 0.00 | 0.00 | 0.00 | 1 | 1014.8 |
| 20260902105919 | 78 | 105 | 0.0 | 2.0 | 0.00 | 0.00 | 0.00 | 1 | 1014.7 |
| 20260902105419 | 78 | 105 | 0.0 | 1.0 | 0.00 | 0.00 | 0.00 | 1 | 1014.7 |
| 20260902104919 | 78 | 105 | 0.0 | 0.0 | 0.00 | 0.00 | 0.00 | 1 | 1014.7 |
| 20260902104408 | 78 | 105 | 0.0 | 0.0 | 0.00 | 0.00 | 0.00 | 1 | 1014.7 |
| 20260902103908 | 78 | 105 | 0.0 | 0.0 | 0.00 | 0.00 | 0.00 | 1 | 1014.7 |
| 20260902103408 | 78 | 105 | 0.0 | 0.0 | 0.00 | 0.00 | 0.00 | 1 | 1014.6 |
| 20260902102909 | 78 | 105 | 0.0 | 0.0 | 0.00 | 0.00 | 0.00 | 1 | 1014.5 |
| 20260902102406 | 78 | 105 | 0.0 | 0.0 | 0.00 | 0.00 | 0.00 | 1 | 1014.5 |
| 20260902101906 | 78 | 105 | 0.0 | 0.0 | 0.00 | 0.00 | 0.00 | 1 | 1014.5 |
| 20260902101406 | 78 | 105 | 0.0 | 0.0 | 0.00 | 0.00 | 0.00 | 1 | 1014.5 |
| 20260902100908 | 78 | 105 | 0.0 | 0.0 | 0.00 | 0.00 | 0.00 | 1 | 1014.5 |
| 20260902100903 | 78 | 105 | 0.0 | 0.0 | 0.00 | 0.00 | 0.00 | 1 | 1014.5 |
| 20260902095903 | 79 | 105 | 0.0 | 0.0 | 0.00 | 0.00 | 0.00 | 1 | 1014.6 |
| 20260902095359 | 79 | 105 | 0.0 | 0.0 | 0.00 | 0.00 | 0.00 | 1 | 1014.6 |
| 20260902094858 | 79 | 105 | 0.0 | 0.0 | 0.00 | 0.00 | 0.00 | 1 | 1014.5 |
| 20260902094358 | 79 | 105 | 0.0 | 1.0 | 0.00 | 0.00 | 0.00 | 1 | 1014.6 |
| 20260902093900 | 79 | 105 | 0.0 | 1.0 | 0.00 | 0.00 | 0.00 | 1 | 1014.6 |
| 20260902093856 | 79 | 105 | 0.0 | 1.0 | 0.00 | 0.00 | 0.00 | 1 | 1014.6 |
| 20260902092854 | 79 | 105 | 0.0 | 2.0 | 0.00 | 0.00 | 0.00 | 1 | 1014.6 |
| 20260902092355 | 80 | 106 | 1.0 | 3.0 | 0.00 | 0.00 | 0.00 | 1 | 1014.5 |
| 20260902091854 | 80 | 106 | 1.0 | 3.0 | 0.00 | 0.00 | 0.00 | 1 | 1014.6 |
| 20260902091849 | 80 | 145 | 0.0 | 3.0 | 0.00 | 0.00 | 0.00 | 1 | 1014.5 |
| 20260902090849 | 80 | 178 | 0.0 | 1.0 | 0.00 | 0.00 | 0.00 | 1 | 1014.4 |
| 20260902090347 | 80 | 178 | 0.0 | 2.0 | 0.00 | 0.00 | 0.00 | 1 | 1014.5 |
| 20260902085844 | 80 | 178 | 0.0 | 2.0 | 0.00 | 0.00 | 0.00 | 1 | 1014.6 |
| 20260902085344 | 80 | 178 | 1.0 | 3.0 | 0.00 | 0.00 | 0.00 | 1 | 1014.6 |
| 20260902084842 | 80 | 194 | 1.0 | 3.0 | 0.00 | 0.00 | 0.00 | 1 | 1014.6 |
| 20260902084341 | 80 | 171 | 0.0 | 2.0 | 0.00 | 0.00 | 0.00 | 1 | 1014.7 |
| 20260902083846 | 80 | 171 | 0.0 | 2.0 | 0.00 | 0.00 | 0.00 | 1 | 1014.7 |
| 20260902083842 | 80 | 171 | 0.0 | 2.0 | 0.00 | 0.00 | 0.00 | 1 | 1014.7 |
| 20260902082841 | 80 | 171 | 1.0 | 2.0 | 0.00 | 0.00 | 0.00 | 1 | 1014.6 |
| 20260902082339 | 80 | 171 | 1.0 | 2.0 | 0.00 | 0.00 | 0.00 | 1 | 1014.6 |
| 20260902081838 | 81 | 180 | 1.0 | 3.0 | 0.00 | 0.00 | 0.00 | 1 | 1014.6 |
| 20260902081338 | 81 | 180 | 1.0 | 3.0 | 0.00 | 0.00 | 0.00 | 1 | 1014.7 |
| 20260902080838 | 81 | 205 | 1.0 | 3.0 | 0.00 | 0.00 | 0.00 | 1 | 1014.8 |
| 20260902080338 | 81 | 176 | 1.0 | 3.0 | 0.00 | 0.00 | 0.00 | 1 | 1014.9 |
| 20260902075838 | 81 | 171 | 1.0 | 4.0 | 0.00 | 0.00 | 0.00 | 1 | 1014.9 |
| 20260902075335 | 81 | 203 | 1.0 | 4.0 | 0.00 | 0.00 | 0.00 | 1 | 1014.9 |
| 20260902074834 | 81 | 217 | 1.0 | 4.0 | 0.00 | 0.00 | 0.00 | 1 | 1015.0 |
| 20260902074334 | 81 | 161 | 1.0 | 3.0 | 0.00 | 0.00 | 0.00 | 1 | 1015.0 |
| 20260902073833 | 81 | 184 | 1.0 | 3.0 | 0.00 | 0.00 | 0.00 | 1 | 1015.1 |
| 20260902073334 | 81 | 190 | 2.0 | 4.0 | 0.00 | 0.00 | 0.00 | 1 | 1015.1 |
| 20260902072833 | 82 | 204 | 2.0 | 4.0 | 0.00 | 0.00 | 0.00 | 1 | 1015.2 |
| 20260902072332 | 82 | 171 | 1.0 | 4.0 | 0.00 | 0.00 | 0.00 | 1 | 1015.1 |
| 20260902071832 | 82 | 197 | 0.0 | 3.0 | 0.00 | 0.00 | 0.00 | 1 | 1015.1 |
| 20260902071332 | 82 | 167 | 0.0 | 2.0 | 0.00 | 0.00 | 0.00 | 1 | 1015.1 |
| 20260902070832 | 82 | 153 | 1.0 | 2.0 | 0.00 | 0.00 | 0.00 | 1 | 1015.1 |
| 20260902070330 | 82 | 131 | 1.0 | 2.0 | 0.00 | 0.00 | 0.00 | 1 | 1015.1 |
| 20260902065828 | 82 | 161 | 1.0 | 2.0 | 0.00 | 0.00 | 0.00 | 1 | 1015.1 |
| 20260902065329 | 82 | 194 | 1.0 | 2.0 | 0.00 | 0.00 | 0.00 | 1 | 1015.1 |
| 20260902064828 | 82 | 168 | 1.0 | 2.0 | 0.00 | 0.00 | 0.00 | 1 | 1015.1 |
| 20260902064325 | 82 | 163 | 1.0 | 5.0 | 0.00 | 0.00 | 0.00 | 1 | 1015.2 |
| 20260902063826 | 82 | 169 | 0.0 | 5.0 | 0.00 | 0.00 | 0.00 | 1 | 1015.3 |
| 20260902063326 | 82 | 180 | 0.0 | 2.0 | 0.00 | 0.00 | 0.00 | 1 | 1015.4 |
| 20260902062823 | 82 | 180 | 1.0 | 3.0 | 0.00 | 0.00 | 0.00 | 1 | 1015.4 |
| 20260902062322 | 82 | 200 | 1.0 | 5.0 | 0.00 | 0.00 | 0.00 | 1 | 1015.4 |
| 20260902061821 | 82 | 184 | 1.0 | 5.0 | 0.00 | 0.00 | 0.00 | 1 | 1015.5 |
| 20260902061321 | 82 | 157 | 0.0 | 4.0 | 0.00 | 0.00 | 0.00 | 1 | 1015.4 |
| 20260902060818 | 83 | 174 | 0.0 | 3.0 | 0.00 | 0.00 | 0.00 | 1 | 1015.4 |
| 20260902060315 | 83 | 174 | 1.0 | 3.0 | 0.00 | 0.00 | 0.00 | 1 | 1015.4 |
| 20260902055815 | 83 | 189 | 2.0 | 3.0 | 0.00 | 0.00 | 0.00 | 2 | 1015.2 |
| 20260902055315 | 83 | 180 | 1.0 | 5.0 | 0.00 | 0.00 | 0.00 | 3 | 1015.2 |
| 20260902054814 | 83 | 196 | 2.0 | 6.0 | 0.00 | 0.00 | 0.00 | 4 | 1015.2 |
| 20260902054314 | 83 | 181 | 2.0 | 6.0 | 0.00 | 0.00 | 0.00 | 5 | 1015.1 |
| 20260902053818 | 83 | 158 | 2.0 | 5.0 | 0.00 | 0.00 | 0.00 | 9 | 1015.0 |
| 20260902053814 | 83 | 137 | 1.0 | 4.0 | 0.00 | 0.00 | 0.00 | 7 | 1015.1 |
| 20260902052814 | 84 | 137 | 2.0 | 5.0 | 0.00 | 0.00 | 0.00 | 11 | 1015.0 |
| 20260902052318 | 84 | 145 | 2.0 | 5.0 | 0.00 | 0.00 | 0.00 | 14 | 1015.1 |
| 20260902052314 | 84 | 178 | 2.0 | 5.0 | 0.00 | 0.00 | 0.00 | 13 | 1015.0 |
| 20260902051311 | 84 | 153 | 1.0 | 4.0 | 0.00 | 0.00 | 0.00 | 16 | 1015.1 |
| 20260902050812 | 84 | 192 | 1.0 | 5.0 | 0.00 | 0.00 | 0.00 | 17 | 1015.1 |
| 20260902050310 | 84 | 172 | 1.0 | 5.0 | 0.00 | 0.00 | 0.00 | 18 | 1015.0 |
| 20260902045809 | 84 | 188 | 1.0 | 5.0 | 0.00 | 0.00 | 0.00 | 18 | 1015.0 |
| 20260902045309 | 85 | 162 | 1.0 | 5.0 | 0.00 | 0.00 | 0.00 | 19 | 1015.0 |
| 20260902044812 | 85 | 128 | 1.0 | 5.0 | 0.00 | 0.00 | 0.00 | 21 | 1014.9 |
| 20260902044808 | 85 | 131 | 1.0 | 5.0 | 0.00 | 0.00 | 0.00 | 20 | 1015.0 |
| 20260902043807 | 85 | 173 | 1.0 | 5.0 | 0.00 | 0.00 | 0.00 | 22 | 1015.0 |
| 20260902043310 | 85 | 136 | 1.0 | 5.0 | 0.00 | 0.00 | 0.00 | 24 | 1015.0 |
| 20260902043306 | 85 | 125 | 1.0 | 5.0 | 0.00 | 0.00 | 0.00 | 25 | 1015.0 |
| 20260902042308 | 85 | 136 | 1.0 | 5.0 | 0.00 | 0.00 | 0.00 | 26 | 1015.0 |
| 20260902041801 | 86 | 144 | 1.0 | 4.0 | 0.00 | 0.00 | 0.00 | 27 | 1015.0 |
| 20260902041302 | 86 | 92 | 1.0 | 5.0 | 0.00 | 0.00 | 0.00 | 28 | 1014.9 |
| 20260902040759 | 86 | 131 | 2.0 | 7.0 | 0.00 | 0.00 | 0.00 | 29 | 1014.9 |
| 20260902040259 | 86 | 172 | 2.0 | 7.0 | 0.00 | 0.00 | 0.00 | 30 | 1014.9 |
| 20260902035758 | 86 | 115 | 2.0 | 7.0 | 0.00 | 0.00 | 0.00 | 31 | 1014.8 |
| 20260902035305 | 87 | 85 | 2.0 | 6.0 | 0.00 | 0.00 | 0.00 | 32 | 1014.7 |
| 20260902035259 | 87 | 77 | 2.0 | 7.0 | 0.00 | 0.00 | 0.00 | 31 | 1014.8 |
| 20260902034259 | 87 | 92 | 1.0 | 6.0 | 0.00 | 0.00 | 0.00 | 34 | 1014.7 |
| 20260902033759 | 87 | 106 | 1.0 | 6.0 | 0.00 | 0.00 | 0.00 | 35 | 1014.6 |
| 20260902033257 | 87 | 86 | 1.0 | 4.0 | 0.00 | 0.00 | 0.00 | 37 | 1014.6 |
| 20260902032758 | 87 | 133 | 1.0 | 6.0 | 0.00 | 0.00 | 0.00 | 38 | 1014.5 |
| 20260902032754 | 88 | 117 | 2.0 | 6.0 | 0.00 | 0.00 | 0.00 | 39 | 1014.5 |
| 20260902031753 | 88 | 96 | 2.0 | 7.0 | 0.00 | 0.00 | 0.00 | 40 | 1014.4 |
| 20260902031253 | 88 | 201 | 2.0 | 7.0 | 0.00 | 0.00 | 0.00 | 40 | 1014.3 |
| 20260902030753 | 88 | 78 | 1.0 | 4.0 | 0.00 | 0.00 | 0.00 | 41 | 1014.2 |
| 20260902030257 | 88 | 83 | 1.0 | 8.0 | 0.00 | 0.00 | 0.00 | 41 | 1014.1 |
| 20260902030252 | 88 | 98 | 1.0 | 8.0 | 0.00 | 0.00 | 0.00 | 41 | 1014.1 |
| 20260902025250 | 88 | 97 | 1.0 | 4.0 | 0.00 | 0.00 | 0.00 | 41 | 1014.0 |
| 20260902024752 | 88 | 137 | 0.0 | 1.0 | 0.00 | 0.00 | 0.00 | 41 | 1013.6 |
| 20260902024250 | 88 | 137 | 0.0 | 1.0 | 0.00 | 0.00 | 0.00 | 42 | 1013.6 |
| 20260902023750 | 88 | 137 | 0.0 | 1.0 | 0.00 | 0.00 | 0.00 | 42 | 1013.5 |
| 20260902023249 | 88 | 137 | 0.0 | 1.0 | 0.00 | 0.00 | 0.00 | 42 | 1013.4 |
| 20260902022748 | 89 | 137 | 0.0 | 1.0 | 0.00 | 0.00 | 0.00 | 42 | 1013.3 |
| 20260902022246 | 89 | 137 | 0.0 | 1.0 | 0.00 | 0.00 | 0.00 | 42 | 1013.2 |
| 20260902021747 | 89 | 137 | 0.0 | 1.0 | 0.00 | 0.00 | 0.00 | 42 | 1013.2 |
| 20260902021245 | 89 | 137 | 0.0 | 1.0 | 0.00 | 0.00 | 0.00 | 42 | 1013.0 |
| 20260902020745 | 89 | 137 | 0.0 | 0.0 | 0.00 | 0.00 | 0.00 | 42 | 1013.0 |
| 20260902020245 | 90 | 137 | 0.0 | 0.0 | 0.00 | 0.00 | 0.00 | 42 | 1012.9 |
| 20260902015742 | 90 | 137 | 0.0 | 1.0 | 0.00 | 0.00 | 0.00 | 42 | 1012.8 |
| 20260902015240 | 90 | 137 | 0.0 | 1.0 | 0.00 | 0.00 | 0.00 | 42 | 1012.8 |
| 20260902014740 | 91 | 137 | 0.0 | 1.0 | 0.00 | 0.00 | 0.00 | 41 | 1012.8 |
| 20260902014238 | 91 | 137 | 0.0 | 1.0 | 0.00 | 0.00 | 0.00 | 41 | 1012.8 |
| 20260902013738 | 91 | 137 | 0.0 | 0.0 | 0.00 | 0.00 | 0.00 | 41 | 1012.7 |
| 20260902013237 | 92 | 137 | 0.0 | 1.0 | 0.00 | 0.00 | 0.00 | 41 | 1012.7 |
| 20260902012734 | 92 | 137 | 0.0 | 1.0 | 0.00 | 0.00 | 0.00 | 41 | 1012.6 |
| 20260902012239 | 93 | 137 | 0.0 | 1.0 | 0.00 | 0.00 | 0.00 | 40 | 1012.6 |
| 20260902012234 | 92 | 137 | 0.0 | 1.0 | 0.00 | 0.00 | 0.00 | 40 | 1012.6 |
| 20260902011235 | 93 | 137 | 0.0 | 2.0 | 0.00 | 0.00 | 0.00 | 40 | 1012.6 |
| 20260902010736 | 94 | 82 | 1.0 | 2.0 | 0.00 | 0.00 | 0.00 | 39 | 1012.5 |
| 20260902010732 | 93 | 136 | 0.0 | 2.0 | 0.00 | 0.00 | 0.00 | 40 | 1012.5 |
| 20260902005731 | 94 | 82 | 1.0 | 3.0 | 0.00 | 0.00 | 0.00 | 39 | 1012.5 |
| 20260902005230 | 94 | 80 | 1.0 | 4.0 | 0.00 | 0.00 | 0.00 | 39 | 1012.4 |
| 20260902004730 | 94 | 101 | 1.0 | 4.0 | 0.00 | 0.00 | 0.00 | 39 | 1012.5 |
| 20260902004231 | 94 | 78 | 1.0 | 3.0 | 0.00 | 0.00 | 0.00 | 38 | 1012.5 |
| 20260902003731 | 94 | 78 | 1.0 | 4.0 | 0.00 | 0.00 | 0.00 | 38 | 1012.5 |